Time,TemperatureF,DewpointF,PressureIn,WindDirection,WindDirectionDegrees,WindSpeedMPH,WindSpeedGustMPH,Humidity,HourlyPrecipIn,Conditions,Clouds,dailyrainin,SoftwareType,DateUTC
2013-03-12 01:30:00,67.9,-99.9,29.86,SSE,150,2.0,-999.0,-999,-99.99,,,0.00,weatherlink.com 1.10,2013-03-12 05:30:00,
2013-03-12 06:30:00,66.9,-99.9,29.84,SW,214,2.0,-999.0,0,-99.99,,,0.00,weatherlink.com 1.10,2013-03-12 10:30:00,
2013-03-12 08:09:00,67.4,-99.9,29.83,SW,226,2.0,-999.0,0,-99.99,,,0.00,weatherlink.com 1.10,2013-03-12 12:09:00,
2013-03-12 08:17:00,67.4,-99.9,29.84,SSW,193,4.0,-999.0,0,-99.99,,,0.00,weatherlink.com 1.10,2013-03-12 12:17:00,
2013-03-12 08:32:00,67.6,-99.9,29.85,SSW,203,2.0,-999.0,0,-99.99,,,0.00,weatherlink.com 1.10,2013-03-12 12:32:00,
2013-03-12 08:47:00,67.9,-99.9,29.86,SSW,198,5.0,-999.0,0,-99.99,,,0.00,weatherlink.com 1.10,2013-03-12 12:47:00,
2013-03-12 10:41:00,68.6,-99.9,29.88,SSW,212,6.0,-999.0,0,-99.99,,,0.00,weatherlink.com 1.10,2013-03-12 14:41:00,
2013-03-12 10:48:00,68.6,-99.9,29.88,SW,214,5.0,-999.0,0,-99.99,,,0.00,weatherlink.com 1.10,2013-03-12 14:48:00,
2013-03-12 15:25:00,73.0,13.0,29.82,SW,223,6.0,-999.0,10,-99.99,,,0.00,weatherlink.com 1.10,2013-03-12 19:25:00,
2013-03-12 15:33:00,72.8,8.0,29.82,SW,229,4.0,-999.0,8,-99.99,,,0.00,weatherlink.com 1.10,2013-03-12 19:33:00,
2013-03-12 15:48:00,72.5,5.0,29.82,SW,227,4.0,-999.0,7,-99.99,,,0.00,weatherlink.com 1.10,2013-03-12 19:48:00,
2013-03-12 16:03:00,72.7,8.0,29.82,SW,235,4.0,-999.0,8,-99.99,,,0.00,weatherlink.com 1.10,2013-03-12 20:03:00,
2013-03-12 16:33:00,72.7,8.0,29.81,WSW,244,6.0,-999.0,8,-99.99,,,0.00,weatherlink.com 1.10,2013-03-12 20:33:00,
2013-03-12 16:48:00,72.8,13.0,29.82,WSW,243,7.0,-999.0,10,-99.99,,,0.00,weatherlink.com 1.10,2013-03-12 20:48:00,
2013-03-12 17:03:00,72.7,10.0,29.81,WSW,252,7.0,-999.0,9,-99.99,,,0.00,weatherlink.com 1.10,2013-03-12 21:03:00,
2013-03-12 17:18:00,72.5,10.0,29.82,WSW,246,10.0,-999.0,9,-99.99,,,0.00,weatherlink.com 1.10,2013-03-12 21:18:00,
2013-03-12 17:34:00,72.7,13.0,29.81,WSW,251,11.0,-999.0,10,-99.99,,,0.00,weatherlink.com 1.10,2013-03-12 21:34:00,
2013-03-12 17:49:00,72.3,5.0,29.82,West,259,10.0,-999.0,7,-99.99,,,0.00,weatherlink.com 1.10,2013-03-12 21:49:00,
2013-03-12 18:49:00,71.1,-35.0,29.82,WSW,240,7.0,-999.0,1,-99.99,,,0.00,weatherlink.com 1.10,2013-03-12 22:49:00,
2013-03-12 19:19:00,70.8,-99.9,29.82,WSW,241,5.0,-999.0,0,-99.99,,,0.00,weatherlink.com 1.10,2013-03-12 23:19:00,
2013-03-12 20:34:00,69.4,-99.9,29.85,WSW,252,4.0,-999.0,0,-99.99,,,0.00,weatherlink.com 1.10,2013-03-13 00:34:00,
2013-03-12 20:49:00,69.4,-99.9,29.86,West,261,5.0,-999.0,0,-99.99,,,0.00,weatherlink.com 1.10,2013-03-13 00:49:00,
2013-03-12 21:19:00,69.1,-99.9,29.87,West,263,6.0,-999.0,0,-99.99,,,0.00,weatherlink.com 1.10,2013-03-13 01:19:00,
2013-03-12 21:50:00,68.3,-99.9,29.88,West,266,10.0,-999.0,0,-99.99,,,0.00,weatherlink.com 1.10,2013-03-13 01:50:00,
2013-03-12 23:50:00,62.4,-99.9,29.92,WNW,294,3.0,-999.0,0,-99.99,,,0.00,weatherlink.com 1.10,2013-03-13 03:50:00,